Time,TemperatureF,DewpointF,PressureIn,WindDirection,WindDirectionDegrees,WindSpeedMPH,WindSpeedGustMPH,Humidity,HourlyPrecipIn,Conditions,Clouds,dailyrainin,SoftwareType,DateUTC
2013-01-17 00:04:00,31.0,29.0,29.87,NW,309,1.0,4.0,91,0.00,,,0.00,,2013-01-17 05:04:00,
2013-01-17 00:12:00,31.0,29.0,29.87,NW,309,1.0,4.0,91,0.00,,,0.00,,2013-01-17 05:12:00,
2013-01-17 00:22:00,31.0,29.0,29.88,NW,309,1.0,4.0,91,0.00,,,0.00,,2013-01-17 05:22:00,
2013-01-17 00:33:00,31.0,29.0,29.89,NW,309,1.0,4.0,91,0.00,,,0.00,,2013-01-17 05:33:00,
2013-01-17 00:42:00,31.0,29.0,29.89,NW,309,1.0,4.0,91,0.00,,,0.00,,2013-01-17 05:42:00,
2013-01-17 00:53:00,31.0,28.0,29.90,NW,309,1.0,4.0,90,0.00,,,0.00,,2013-01-17 05:53:00,
2013-01-17 01:02:00,32.0,29.0,29.90,NW,309,1.0,4.0,90,0.00,,,0.00,,2013-01-17 06:02:00,
2013-01-17 01:12:00,32.0,29.0,29.90,NW,309,1.0,4.0,90,0.00,,,0.00,,2013-01-17 06:12:00,
2013-01-17 01:22:00,32.0,29.0,29.90,NW,309,1.0,4.0,90,0.00,,,0.00,,2013-01-17 06:22:00,
2013-01-17 01:32:00,32.0,29.0,29.89,NW,309,1.0,3.0,90,0.00,,,0.00,,2013-01-17 06:32:00,
2013-01-17 01:42:00,32.0,29.0,29.89,NW,309,1.0,3.0,90,0.00,,,0.00,,2013-01-17 06:42:00,
2013-01-17 01:53:00,32.0,29.0,29.89,NW,309,0.0,3.0,90,0.00,,,0.00,,2013-01-17 06:53:00,
2013-01-17 02:02:00,32.0,29.0,29.90,NW,309,0.0,2.0,89,0.00,,,0.00,,2013-01-17 07:02:00,
2013-01-17 02:12:00,32.0,29.0,29.90,NW,309,0.0,2.0,89,0.00,,,0.00,,2013-01-17 07:12:00,
2013-01-17 02:22:00,32.0,29.0,29.90,NW,309,1.0,4.0,89,0.00,,,0.00,,2013-01-17 07:22:00,
2013-01-17 02:33:00,32.0,29.0,29.90,NW,309,1.0,2.0,89,0.00,,,0.00,,2013-01-17 07:33:00,
2013-01-17 02:42:00,32.0,29.0,29.90,NW,309,1.0,2.0,89,0.00,,,0.00,,2013-01-17 07:42:00,
2013-01-17 02:53:00,32.0,29.0,29.90,NW,309,1.0,4.0,89,0.00,,,0.00,,2013-01-17 07:53:00,
2013-01-17 03:02:00,32.0,29.0,29.90,NW,309,3.0,6.0,88,0.00,,,0.00,,2013-01-17 08:02:00,
2013-01-17 03:12:00,32.0,29.0,29.90,NW,309,3.0,6.0,88,0.00,,,0.00,,2013-01-17 08:12:00,
2013-01-17 03:22:00,32.0,29.0,29.91,NW,309,2.0,6.0,87,0.00,,,0.00,,2013-01-17 08:22:00,
2013-01-17 03:32:00,32.0,28.0,29.90,NW,309,2.0,5.0,86,0.00,,,0.00,,2013-01-17 08:32:00,
2013-01-17 03:43:00,32.0,28.0,29.90,NW,309,2.0,5.0,86,0.00,,,0.00,,2013-01-17 08:43:00,
2013-01-17 03:53:00,33.0,29.0,29.89,NW,309,3.0,6.0,84,0.00,,,0.00,,2013-01-17 08:53:00,
2013-01-17 04:02:00,33.0,28.0,29.89,NW,309,4.0,8.0,83,0.00,,,0.00,,2013-01-17 09:02:00,
2013-01-17 04:12:00,33.0,28.0,29.89,NW,309,4.0,8.0,83,0.00,,,0.00,,2013-01-17 09:12:00,
2013-01-17 04:22:00,33.0,28.0,29.88,NW,309,4.0,10.0,82,0.00,,,0.00,,2013-01-17 09:22:00,
2013-01-17 04:32:00,33.0,28.0,29.88,NW,309,3.0,9.0,81,0.00,,,0.00,,2013-01-17 09:32:00,
2013-01-17 04:42:00,33.0,28.0,29.88,NW,309,3.0,9.0,81,0.00,,,0.00,,2013-01-17 09:42:00,
2013-01-17 04:53:00,32.0,27.0,29.88,NW,309,3.0,8.0,81,0.00,,,0.00,,2013-01-17 09:53:00,
2013-01-17 05:02:00,32.0,27.0,29.89,NW,309,2.0,5.0,81,0.00,,,0.00,,2013-01-17 10:02:00,
2013-01-17 05:12:00,32.0,27.0,29.89,NW,309,2.0,5.0,81,0.00,,,0.00,,2013-01-17 10:12:00,
2013-01-17 05:22:00,32.0,27.0,29.90,NW,309,2.0,6.0,81,0.00,,,0.00,,2013-01-17 10:22:00,
2013-01-17 05:32:00,32.0,27.0,29.91,NW,309,3.0,9.0,80,0.00,,,0.00,,2013-01-17 10:32:00,
2013-01-17 05:42:00,32.0,27.0,29.91,NW,309,3.0,9.0,80,0.00,,,0.00,,2013-01-17 10:42:00,
2013-01-17 05:53:00,32.0,27.0,29.92,NW,309,3.0,8.0,80,0.00,,,0.00,,2013-01-17 10:53:00,
2013-01-17 06:03:00,32.0,27.0,29.92,NW,309,1.0,4.0,80,0.00,,,0.00,,2013-01-17 11:03:00,
2013-01-17 06:12:00,32.0,27.0,29.92,NW,309,1.0,4.0,80,0.00,,,0.00,,2013-01-17 11:12:00,
2013-01-17 06:22:00,32.0,27.0,29.92,NW,309,2.0,5.0,81,0.00,,,0.00,,2013-01-17 11:22:00,
2013-01-17 06:33:00,31.0,26.0,29.93,NW,309,3.0,7.0,81,0.00,,,0.00,,2013-01-17 11:33:00,
2013-01-17 06:43:00,31.0,26.0,29.93,NW,309,3.0,7.0,81,0.00,,,0.00,,2013-01-17 11:43:00,
2013-01-17 06:53:00,31.0,26.0,29.93,NW,309,2.0,5.0,81,0.00,,,0.00,,2013-01-17 11:53:00,
2013-01-17 07:02:00,32.0,27.0,29.95,NW,309,2.0,8.0,81,0.00,,,0.00,,2013-01-17 12:02:00,
2013-01-17 07:12:00,32.0,27.0,29.95,NW,309,2.0,8.0,81,0.00,,,0.00,,2013-01-17 12:12:00,
2013-01-17 07:23:00,32.0,27.0,29.94,NW,309,2.0,8.0,81,0.00,,,0.00,,2013-01-17 12:23:00,
2013-01-17 07:33:00,32.0,27.0,29.96,NW,309,4.0,8.0,80,0.00,,,0.00,,2013-01-17 12:33:00,
2013-01-17 07:43:00,32.0,27.0,29.96,NW,309,4.0,8.0,80,0.00,,,0.00,,2013-01-17 12:43:00,
2013-01-17 07:53:00,32.0,26.0,29.97,NW,309,4.0,10.0,79,0.00,,,0.00,,2013-01-17 12:53:00,
2013-01-17 08:03:00,32.0,26.0,29.97,NW,309,2.0,12.0,79,0.00,,,0.00,,2013-01-17 13:03:00,
2013-01-17 08:12:00,32.0,26.0,29.97,NW,309,2.0,12.0,79,0.00,,,0.00,,2013-01-17 13:12:00,
2013-01-17 08:23:00,32.0,26.0,29.98,NW,309,2.0,5.0,79,0.00,,,0.00,,2013-01-17 13:23:00,
2013-01-17 08:33:00,33.0,27.0,30.00,NW,309,3.0,6.0,78,0.00,,,0.00,,2013-01-17 13:33:00,
2013-01-17 08:43:00,33.0,27.0,30.00,NW,309,3.0,6.0,78,0.00,,,0.00,,2013-01-17 13:43:00,
2013-01-17 08:53:00,33.0,27.0,30.01,NW,309,1.0,5.0,78,0.00,,,0.00,,2013-01-17 13:53:00,
2013-01-17 09:03:00,34.0,28.0,30.00,NNW,348,3.0,5.0,77,0.00,,,0.00,,2013-01-17 14:03:00,
2013-01-17 09:12:00,34.0,28.0,30.00,NNW,348,3.0,5.0,77,0.00,,,0.00,,2013-01-17 14:12:00,
2013-01-17 09:23:00,35.0,29.0,30.01,NW,319,1.0,3.0,78,0.00,,,0.00,,2013-01-17 14:23:00,
2013-01-17 09:33:00,36.0,29.0,30.02,North,350,1.0,6.0,74,0.00,,,0.00,,2013-01-17 14:33:00,
2013-01-17 09:43:00,36.0,29.0,30.02,North,350,1.0,6.0,74,0.00,,,0.00,,2013-01-17 14:43:00,
2013-01-17 09:53:00,37.0,29.0,30.02,West,281,2.0,6.0,74,0.00,,,0.00,,2013-01-17 14:53:00,
2013-01-17 10:03:00,37.0,29.0,30.04,WNW,297,1.0,5.0,72,0.00,,,0.00,,2013-01-17 15:03:00,
2013-01-17 10:12:00,37.0,29.0,30.04,WNW,297,1.0,5.0,72,0.00,,,0.00,,2013-01-17 15:12:00,
2013-01-17 10:23:00,37.0,29.0,30.03,NW,326,1.0,6.0,72,0.00,,,0.00,,2013-01-17 15:23:00,
2013-01-17 10:33:00,38.0,29.0,30.03,NW,325,2.0,4.0,71,0.01,,,0.01,,2013-01-17 15:33:00,
2013-01-17 10:43:00,38.0,29.0,30.03,NW,325,2.0,4.0,71,0.01,,,0.01,,2013-01-17 15:43:00,
2013-01-17 10:53:00,38.0,29.0,30.03,West,266,2.0,7.0,69,0.03,,,0.03,,2013-01-17 15:53:00,
2013-01-17 11:03:00,39.0,29.0,30.02,NNW,331,4.0,8.0,68,0.05,,,0.05,,2013-01-17 16:03:00,
2013-01-17 11:12:00,39.0,29.0,30.02,NNW,331,4.0,8.0,68,0.05,,,0.05,,2013-01-17 16:12:00,
2013-01-17 11:23:00,40.0,30.0,30.04,WNW,288,2.0,7.0,67,0.08,,,0.08,,2013-01-17 16:23:00,
2013-01-17 11:33:00,40.0,30.0,30.02,NW,311,3.0,9.0,67,0.10,,,0.11,,2013-01-17 16:33:00,
2013-01-17 11:43:00,40.0,30.0,30.02,NW,311,3.0,9.0,67,0.10,,,0.11,,2013-01-17 16:43:00,
2013-01-17 11:53:00,40.0,30.0,30.03,NW,305,1.0,7.0,66,0.10,,,0.13,,2013-01-17 16:53:00,
2013-01-17 12:03:00,41.0,30.0,30.03,NW,321,5.0,13.0,65,0.11,,,0.16,,2013-01-17 17:03:00,
2013-01-17 12:13:00,41.0,30.0,30.03,NW,321,5.0,13.0,65,0.11,,,0.16,,2013-01-17 17:13:00,
2013-01-17 12:23:00,41.0,31.0,30.03,SW,219,1.0,13.0,66,0.12,,,0.20,,2013-01-17 17:23:00,
2013-01-17 12:33:00,42.0,30.0,30.03,NW,309,4.0,7.0,63,0.12,,,0.23,,2013-01-17 17:33:00,
2013-01-17 12:43:00,42.0,30.0,30.03,NW,309,4.0,7.0,63,0.12,,,0.23,,2013-01-17 17:43:00,
2013-01-17 12:53:00,40.0,29.0,30.02,WNW,292,4.0,6.0,65,0.13,,,0.26,,2013-01-17 17:53:00,
2013-01-17 13:04:00,39.0,29.0,30.02,NW,326,3.0,6.0,66,0.11,,,0.27,,2013-01-17 18:04:00,
2013-01-17 13:13:00,39.0,29.0,30.02,NW,326,3.0,6.0,66,0.11,,,0.27,,2013-01-17 18:13:00,
2013-01-17 13:23:00,41.0,30.0,30.02,South,173,4.0,10.0,64,0.09,,,0.29,,2013-01-17 18:23:00,
2013-01-17 13:33:00,41.0,30.0,30.02,West,260,1.0,9.0,64,0.08,,,0.31,,2013-01-17 18:33:00,
2013-01-17 13:43:00,41.0,30.0,30.02,West,260,1.0,9.0,64,0.08,,,0.31,,2013-01-17 18:43:00,
2013-01-17 13:53:00,42.0,30.0,30.03,NW,305,1.0,4.0,63,0.07,,,0.33,,2013-01-17 18:53:00,
2013-01-17 14:03:00,42.0,30.0,30.02,WNW,296,2.0,8.0,61,0.08,,,0.35,,2013-01-17 19:03:00,
2013-01-17 14:13:00,42.0,30.0,30.02,WNW,296,2.0,8.0,61,0.08,,,0.35,,2013-01-17 19:13:00,
2013-01-17 14:23:00,42.0,30.0,30.02,WSW,250,2.0,6.0,61,0.08,,,0.37,,2013-01-17 19:23:00,
2013-01-17 14:33:00,42.0,30.0,30.03,WNW,288,1.0,5.0,61,0.08,,,0.39,,2013-01-17 19:33:00,
2013-01-17 14:43:00,42.0,30.0,30.03,WNW,288,1.0,5.0,61,0.08,,,0.39,,2013-01-17 19:43:00,
2013-01-17 14:53:00,41.0,29.0,30.03,NW,306,2.0,6.0,61,0.07,,,0.40,,2013-01-17 19:53:00,
2013-01-17 15:03:00,39.0,28.0,30.04,WNW,288,1.0,5.0,64,0.06,,,0.41,,2013-01-17 20:03:00,
2013-01-17 15:12:00,39.0,28.0,30.04,WNW,288,1.0,5.0,64,0.06,,,0.41,,2013-01-17 20:12:00,
2013-01-17 15:23:00,38.0,28.0,30.02,NNW,345,1.0,5.0,67,0.05,,,0.42,,2013-01-17 20:23:00,
2013-01-17 15:33:00,38.0,28.0,30.03,WSW,251,0.0,6.0,68,0.03,,,0.42,,2013-01-17 20:33:00,
2013-01-17 15:43:00,38.0,28.0,30.03,WSW,251,0.0,6.0,68,0.03,,,0.42,,2013-01-17 20:43:00,
2013-01-17 15:54:00,38.0,29.0,30.03,West,281,0.0,2.0,69,0.02,,,0.42,,2013-01-17 20:54:00,
2013-01-17 16:03:00,37.0,27.0,30.03,NNW,331,1.0,3.0,68,0.02,,,0.43,,2013-01-17 21:03:00,
2013-01-17 16:13:00,37.0,27.0,30.03,NNW,331,1.0,3.0,68,0.02,,,0.43,,2013-01-17 21:13:00,
2013-01-17 16:23:00,37.0,28.0,30.04,NNW,332,0.0,1.0,71,0.01,,,0.43,,2013-01-17 21:23:00,
2013-01-17 16:34:00,37.0,28.0,30.04,West,271,0.0,3.0,71,0.01,,,0.43,,2013-01-17 21:34:00,
2013-01-17 16:43:00,37.0,28.0,30.04,West,271,0.0,3.0,71,0.01,,,0.43,,2013-01-17 21:43:00,
2013-01-17 16:53:00,36.0,28.0,30.05,West,259,0.0,3.0,71,0.01,,,0.43,,2013-01-17 21:53:00,
2013-01-17 17:03:00,36.0,28.0,30.05,West,259,0.0,1.0,72,0.00,,,0.43,,2013-01-17 22:03:00,
2013-01-17 17:12:00,36.0,28.0,30.05,West,259,0.0,1.0,72,0.00,,,0.43,,2013-01-17 22:12:00,
2013-01-17 17:23:00,36.0,28.0,30.06,West,259,0.0,0.0,72,0.00,,,0.43,,2013-01-17 22:23:00,
2013-01-17 17:33:00,36.0,28.0,30.06,NNW,339,1.0,5.0,73,0.00,,,0.43,,2013-01-17 22:33:00,
2013-01-17 17:43:00,36.0,28.0,30.06,NNW,339,1.0,5.0,73,0.00,,,0.43,,2013-01-17 22:43:00,
2013-01-17 17:53:00,35.0,27.0,30.06,NE,43,2.0,6.0,72,0.00,,,0.43,,2013-01-17 22:53:00,
2013-01-17 18:03:00,34.0,26.0,30.09,NW,325,1.0,6.0,73,0.00,,,0.43,,2013-01-17 23:03:00,
2013-01-17 18:12:00,34.0,26.0,30.09,NW,325,1.0,6.0,73,0.00,,,0.43,,2013-01-17 23:12:00,
2013-01-17 18:23:00,34.0,27.0,30.09,NNE,29,0.0,4.0,74,0.00,,,0.43,,2013-01-17 23:23:00,
2013-01-17 18:33:00,34.0,26.0,30.07,North,355,1.0,9.0,72,0.01,,,0.44,,2013-01-17 23:33:00,
2013-01-17 18:43:00,34.0,26.0,30.07,North,355,1.0,9.0,72,0.01,,,0.44,,2013-01-17 23:43:00,
2013-01-17 18:53:00,33.0,25.0,30.09,WNW,287,2.0,9.0,72,0.01,,,0.44,,2013-01-17 23:53:00,
2013-01-17 19:03:00,32.0,23.0,30.09,WNW,295,4.0,6.0,70,0.01,,,0.44,,2013-01-18 00:03:00,
2013-01-17 19:12:00,32.0,23.0,30.09,WNW,295,4.0,6.0,70,0.01,,,0.44,,2013-01-18 00:12:00,
2013-01-17 19:23:00,32.0,23.0,30.09,NW,313,3.0,5.0,70,0.00,,,0.44,,2013-01-18 00:23:00,
2013-01-17 19:32:00,32.0,23.0,30.09,NW,313,3.0,5.0,70,0.00,,,0.44,,2013-01-18 00:32:00,
2013-01-17 19:42:00,32.0,23.0,30.09,NNW,342,1.0,7.0,70,0.00,,,0.44,,2013-01-18 00:42:00,
2013-01-17 19:53:00,31.0,22.0,30.09,NNW,344,3.0,8.0,68,0.00,,,0.44,,2013-01-18 00:53:00,
2013-01-17 20:03:00,31.0,22.0,30.09,NNW,340,3.0,9.0,68,0.00,,,0.44,,2013-01-18 01:03:00,
2013-01-17 20:13:00,31.0,22.0,30.09,NNW,340,3.0,9.0,68,0.00,,,0.44,,2013-01-18 01:13:00,
2013-01-17 20:23:00,31.0,21.0,30.09,WNW,286,0.0,4.0,67,0.00,,,0.44,,2013-01-18 01:23:00,
2013-01-17 20:33:00,30.0,21.0,30.10,North,360,1.0,5.0,68,0.00,,,0.44,,2013-01-18 01:33:00,
2013-01-17 20:43:00,30.0,21.0,30.10,North,360,1.0,5.0,68,0.00,,,0.44,,2013-01-18 01:43:00,
2013-01-17 20:53:00,30.0,20.0,30.09,NW,321,5.0,8.0,67,0.00,,,0.44,,2013-01-18 01:53:00,
2013-01-17 21:03:00,30.0,21.0,30.08,NNW,344,2.0,8.0,68,0.00,,,0.44,,2013-01-18 02:03:00,
2013-01-17 21:12:00,30.0,21.0,30.08,NNW,344,2.0,8.0,68,0.00,,,0.44,,2013-01-18 02:12:00,
2013-01-17 21:23:00,30.0,21.0,30.08,NNW,329,2.0,7.0,69,0.00,,,0.44,,2013-01-18 02:23:00,
2013-01-17 21:33:00,29.0,20.0,30.07,North,5,1.0,4.0,70,0.00,,,0.44,,2013-01-18 02:33:00,
2013-01-17 21:43:00,29.0,20.0,30.07,North,5,1.0,4.0,70,0.00,,,0.44,,2013-01-18 02:43:00,
2013-01-17 21:53:00,29.0,20.0,30.07,NW,321,2.0,7.0,69,0.00,,,0.44,,2013-01-18 02:53:00,
2013-01-17 22:02:00,29.0,20.0,30.07,NNW,346,2.0,5.0,69,0.00,,,0.44,,2013-01-18 03:02:00,
2013-01-17 22:12:00,29.0,20.0,30.07,NNW,346,2.0,5.0,69,0.00,,,0.44,,2013-01-18 03:12:00,
2013-01-17 22:23:00,29.0,20.0,30.07,NNW,336,1.0,4.0,70,0.00,,,0.44,,2013-01-18 03:23:00,
2013-01-17 22:33:00,29.0,21.0,30.06,NNW,330,3.0,5.0,71,0.00,,,0.44,,2013-01-18 03:33:00,
2013-01-17 22:42:00,29.0,21.0,30.06,NNW,330,3.0,5.0,71,0.00,,,0.44,,2013-01-18 03:42:00,
2013-01-17 22:53:00,28.0,20.0,30.04,NNW,337,2.0,6.0,71,0.00,,,0.44,,2013-01-18 03:53:00,
2013-01-17 23:02:00,28.0,20.0,30.03,WNW,295,1.0,7.0,71,0.00,,,0.44,,2013-01-18 04:02:00,
2013-01-17 23:12:00,28.0,20.0,30.03,WNW,295,1.0,7.0,71,0.00,,,0.44,,2013-01-18 04:12:00,
2013-01-17 23:22:00,28.0,20.0,30.03,WNW,299,2.0,7.0,70,0.00,,,0.44,,2013-01-18 04:22:00,
2013-01-17 23:33:00,27.0,18.0,30.03,NNW,340,1.0,8.0,69,0.00,,,0.44,,2013-01-18 04:33:00,
2013-01-17 23:42:00,27.0,18.0,30.03,NNW,340,1.0,8.0,69,0.00,,,0.44,,2013-01-18 04:42:00,
2013-01-17 23:53:00,27.0,18.0,30.06,NNW,340,3.0,8.0,67,0.00,,,0.44,,2013-01-18 04:53:00,